Year,Month,Day,Hour,Minute,Value (Times are PST for temperature in C)
2020,04,13,00,00,5.50
2020,04,13,00,01,5.40
2020,04,13,00,02,5.40
2020,04,13,00,03,5.40
2020,04,13,00,04,5.40
2020,04,13,00,05,5.40
2020,04,13,00,06,5.40
2020,04,13,00,07,5.40
2020,04,13,00,08,5.40
2020,04,13,00,09,5.40
2020,04,13,00,10,5.40
2020,04,13,00,11,5.40
2020,04,13,00,12,5.30
2020,04,13,00,13,5.30
2020,04,13,00,14,5.30
2020,04,13,00,15,5.30
2020,04,13,00,16,5.30
2020,04,13,00,17,5.20
2020,04,13,00,18,5.20
2020,04,13,00,19,5.20
2020,04,13,00,20,5.20
2020,04,13,00,21,5.10
2020,04,13,00,22,5.10
2020,04,13,00,23,5.10
2020,04,13,00,24,5.10
2020,04,13,00,25,5.10
2020,04,13,00,26,5.10
2020,04,13,00,27,5.10
2020,04,13,00,28,5.00
2020,04,13,00,29,5.00
2020,04,13,00,30,5.00
2020,04,13,00,31,5.00
2020,04,13,00,32,5.00
2020,04,13,00,33,4.90
2020,04,13,00,34,4.90
2020,04,13,00,35,4.90
2020,04,13,00,36,4.90
2020,04,13,00,37,4.90
2020,04,13,00,38,4.90
2020,04,13,00,39,4.90
2020,04,13,00,40,4.90
2020,04,13,00,41,4.90
2020,04,13,00,42,4.90
2020,04,13,00,43,4.90
2020,04,13,00,44,4.90
2020,04,13,00,45,4.90
2020,04,13,00,46,4.80
2020,04,13,00,47,4.90
2020,04,13,00,48,4.90
2020,04,13,00,49,4.90
2020,04,13,00,50,4.90
2020,04,13,00,51,4.80
2020,04,13,00,52,4.80
2020,04,13,00,53,4.80
2020,04,13,00,54,4.80
2020,04,13,00,55,4.80
2020,04,13,00,56,4.80
2020,04,13,00,57,4.80
2020,04,13,00,58,4.80
2020,04,13,00,59,4.80
2020,04,13,01,00,4.80
2020,04,13,01,01,4.80
2020,04,13,01,02,4.70
2020,04,13,01,03,4.70
2020,04,13,01,04,4.70
2020,04,13,01,05,4.70
2020,04,13,01,06,4.70
2020,04,13,01,07,4.70
2020,04,13,01,08,4.70
2020,04,13,01,09,4.70
2020,04,13,01,10,4.70
2020,04,13,01,11,4.70
2020,04,13,01,12,4.70
2020,04,13,01,13,4.60
2020,04,13,01,14,4.60
2020,04,13,01,15,4.60
2020,04,13,01,16,4.60
2020,04,13,01,17,4.60
2020,04,13,01,18,4.60
2020,04,13,01,19,4.60
2020,04,13,01,20,4.50
2020,04,13,01,21,4.50
2020,04,13,01,22,4.50
2020,04,13,01,23,4.50
2020,04,13,01,24,4.50
2020,04,13,01,25,4.40
2020,04,13,01,26,4.40
2020,04,13,01,27,4.40
2020,04,13,01,28,4.40
2020,04,13,01,29,4.40
2020,04,13,01,30,4.40
2020,04,13,01,31,4.40
2020,04,13,01,32,4.40
2020,04,13,01,33,4.40
2020,04,13,01,34,4.40
2020,04,13,01,35,4.40
2020,04,13,01,36,4.40
2020,04,13,01,37,4.40
2020,04,13,01,38,4.40
2020,04,13,01,39,4.40
2020,04,13,01,40,4.40
2020,04,13,01,41,4.30
2020,04,13,01,42,4.30
2020,04,13,01,43,4.30
2020,04,13,01,44,4.30
2020,04,13,01,45,4.30
2020,04,13,01,46,4.30
2020,04,13,01,47,4.20
2020,04,13,01,48,4.20
2020,04,13,01,49,4.20
2020,04,13,01,50,4.20
2020,04,13,01,51,4.20
2020,04,13,01,52,4.10
2020,04,13,01,53,4.10
2020,04,13,01,54,4.10
2020,04,13,01,55,4.10
2020,04,13,01,56,4.10
2020,04,13,01,57,4.10
2020,04,13,01,58,4.10
2020,04,13,01,59,4.10
2020,04,13,02,00,4.10
2020,04,13,02,01,4.10
2020,04,13,02,02,4.10
2020,04,13,02,03,4.10
2020,04,13,02,04,4.10
2020,04,13,02,05,4.10
2020,04,13,02,06,4.10
2020,04,13,02,07,4.10
2020,04,13,02,08,4.00
2020,04,13,02,09,4.00
2020,04,13,02,10,3.90
2020,04,13,02,11,3.90
2020,04,13,02,12,3.90
2020,04,13,02,13,3.80
2020,04,13,02,14,3.80
2020,04,13,02,15,3.80
2020,04,13,02,16,3.80
2020,04,13,02,17,3.80
2020,04,13,02,18,3.80
2020,04,13,02,19,3.80
2020,04,13,02,20,3.80
2020,04,13,02,21,3.80
2020,04,13,02,22,3.80
2020,04,13,02,23,3.80
2020,04,13,02,24,3.80
2020,04,13,02,25,3.80
2020,04,13,02,26,3.80
2020,04,13,02,27,3.80
2020,04,13,02,28,3.80
2020,04,13,02,29,3.80
2020,04,13,02,30,3.80
2020,04,13,02,31,3.70
2020,04,13,02,32,3.70
2020,04,13,02,33,3.70
2020,04,13,02,34,3.60
2020,04,13,02,35,3.60
2020,04,13,02,36,3.60
2020,04,13,02,37,3.60
2020,04,13,02,38,3.60
2020,04,13,02,39,3.60
2020,04,13,02,40,3.50
2020,04,13,02,41,3.50
2020,04,13,02,42,3.50
2020,04,13,02,43,3.50
2020,04,13,02,44,3.50
2020,04,13,02,45,3.50
2020,04,13,02,46,3.50
2020,04,13,02,47,3.50
2020,04,13,02,48,3.50
2020,04,13,02,49,3.40
2020,04,13,02,50,3.40
2020,04,13,02,51,3.40
2020,04,13,02,52,3.40
2020,04,13,02,53,3.40
2020,04,13,02,54,3.40
2020,04,13,02,55,3.40
2020,04,13,02,56,3.40
2020,04,13,02,57,3.30
2020,04,13,02,58,3.30
2020,04,13,02,59,3.30
2020,04,13,03,00,3.30
2020,04,13,03,01,3.30
2020,04,13,03,02,3.30
2020,04,13,03,03,3.30
2020,04,13,03,04,3.30
2020,04,13,03,05,3.30
2020,04,13,03,06,3.30
2020,04,13,03,07,3.20
2020,04,13,03,08,3.20
2020,04,13,03,09,3.20
2020,04,13,03,10,3.10
2020,04,13,03,11,3.10
2020,04,13,03,12,3.10
2020,04,13,03,13,3.00
2020,04,13,03,14,3.00
2020,04,13,03,15,3.00
2020,04,13,03,16,3.00
2020,04,13,03,17,3.00
2020,04,13,03,18,3.00
2020,04,13,03,19,3.00
2020,04,13,03,20,3.00
2020,04,13,03,21,3.00
2020,04,13,03,22,2.90
2020,04,13,03,23,2.90
2020,04,13,03,24,2.90
2020,04,13,03,25,2.90
2020,04,13,03,26,2.80
2020,04,13,03,27,2.80
2020,04,13,03,28,2.80
2020,04,13,03,29,2.80
2020,04,13,03,30,2.80
2020,04,13,03,31,2.80
2020,04,13,03,32,2.80
2020,04,13,03,33,2.80
2020,04,13,03,34,2.80
2020,04,13,03,35,2.80
2020,04,13,03,36,2.80
2020,04,13,03,37,2.80
2020,04,13,03,38,2.80
2020,04,13,03,39,2.80
2020,04,13,03,40,2.80
2020,04,13,03,41,2.80
2020,04,13,03,42,2.80
2020,04,13,03,43,2.80
2020,04,13,03,44,2.80
2020,04,13,03,45,2.80
2020,04,13,03,46,2.80
2020,04,13,03,47,2.80
2020,04,13,03,48,2.70
2020,04,13,03,49,2.70
2020,04,13,03,50,2.70
2020,04,13,03,51,2.70
2020,04,13,03,52,2.70
2020,04,13,03,53,2.70
2020,04,13,03,54,2.60
2020,04,13,03,55,2.60
2020,04,13,03,56,2.60
2020,04,13,03,57,2.60
2020,04,13,03,58,2.60
2020,04,13,03,59,2.60
2020,04,13,04,00,2.60
2020,04,13,04,01,2.60
2020,04,13,04,02,2.60
2020,04,13,04,03,2.60
2020,04,13,04,04,2.60
2020,04,13,04,05,2.60
2020,04,13,04,06,2.70
2020,04,13,04,07,2.70
2020,04,13,04,08,2.70
2020,04,13,04,09,2.70
2020,04,13,04,10,2.70
2020,04,13,04,11,2.70
2020,04,13,04,12,2.70
2020,04,13,04,13,2.70
2020,04,13,04,14,2.60
2020,04,13,04,15,2.60
2020,04,13,04,16,2.60
2020,04,13,04,17,2.60
2020,04,13,04,18,2.50
2020,04,13,04,19,2.50
2020,04,13,04,20,2.50
2020,04,13,04,21,2.40
2020,04,13,04,22,2.40
2020,04,13,04,23,2.40
2020,04,13,04,24,2.40
2020,04,13,04,25,2.40
2020,04,13,04,26,2.30
2020,04,13,04,27,2.30
2020,04,13,04,28,2.30
2020,04,13,04,29,2.30
2020,04,13,04,30,2.30
2020,04,13,04,31,2.30
2020,04,13,04,32,2.30
2020,04,13,04,33,2.30
2020,04,13,04,34,2.30
2020,04,13,04,35,2.30
2020,04,13,04,36,2.20
2020,04,13,04,37,2.20
2020,04,13,04,38,2.20
2020,04,13,04,39,2.20
2020,04,13,04,40,2.20
2020,04,13,04,41,2.10
2020,04,13,04,42,2.10
2020,04,13,04,43,2.10
2020,04,13,04,44,2.10
2020,04,13,04,45,2.00
2020,04,13,04,46,2.00
2020,04,13,04,47,2.00
2020,04,13,04,48,2.00
2020,04,13,04,49,1.90
2020,04,13,04,50,1.90
2020,04,13,04,51,1.90
2020,04,13,04,52,1.90
2020,04,13,04,53,1.90
2020,04,13,04,54,1.90
2020,04,13,04,55,1.80
2020,04,13,04,56,1.80
2020,04,13,04,57,1.80
2020,04,13,04,58,1.80
2020,04,13,04,59,1.80
2020,04,13,05,00,1.80
2020,04,13,05,01,1.80
2020,04,13,05,02,1.80
2020,04,13,05,03,1.80
2020,04,13,05,04,1.80
2020,04,13,05,05,1.80
2020,04,13,05,06,1.80
2020,04,13,05,07,1.80
2020,04,13,05,08,1.80
2020,04,13,05,09,1.80
2020,04,13,05,10,1.80
2020,04,13,05,11,1.80
2020,04,13,05,12,1.70
2020,04,13,05,13,1.70
2020,04,13,05,14,1.70
2020,04,13,05,15,1.70
2020,04,13,05,16,1.70
2020,04,13,05,17,1.70
2020,04,13,05,18,1.60
2020,04,13,05,19,1.60
2020,04,13,05,20,1.60
2020,04,13,05,21,1.50
2020,04,13,05,22,1.50
2020,04,13,05,23,1.50
2020,04,13,05,24,1.50
2020,04,13,05,25,1.40
2020,04,13,05,26,1.40
2020,04,13,05,27,1.50
2020,04,13,05,28,1.50
2020,04,13,05,29,1.50
2020,04,13,05,30,1.50
2020,04,13,05,31,1.60
2020,04,13,05,32,1.60
2020,04,13,05,33,1.60
2020,04,13,05,34,1.60
2020,04,13,05,35,1.70
2020,04,13,05,36,1.70
2020,04,13,05,37,1.70
2020,04,13,05,38,1.70
2020,04,13,05,39,1.70
2020,04,13,05,40,1.70
2020,04,13,05,41,1.70
2020,04,13,05,42,1.70
2020,04,13,05,43,1.70
2020,04,13,05,44,1.70
2020,04,13,05,45,1.70
2020,04,13,05,46,1.70
2020,04,13,05,47,1.70
2020,04,13,05,48,1.70
2020,04,13,05,49,1.60
2020,04,13,05,50,1.60
2020,04,13,05,51,1.60
2020,04,13,05,52,1.60
2020,04,13,05,53,1.60
2020,04,13,05,54,1.50
2020,04,13,05,55,1.50
2020,04,13,05,56,1.40
2020,04,13,05,57,1.40
2020,04,13,05,58,1.30
2020,04,13,05,59,1.30
2020,04,13,06,00,1.30
2020,04,13,06,01,1.30
2020,04,13,06,02,1.30
2020,04,13,06,03,1.30
2020,04,13,06,04,1.20
2020,04,13,06,05,1.20
2020,04,13,06,06,1.10
2020,04,13,06,07,1.10
2020,04,13,06,08,1.10
2020,04,13,06,09,1.00
2020,04,13,06,10,1.00
2020,04,13,06,11,1.00
2020,04,13,06,12,1.00
2020,04,13,06,13,0.90
2020,04,13,06,14,0.90
2020,04,13,06,15,0.90
2020,04,13,06,16,1.00
2020,04,13,06,17,1.00
2020,04,13,06,18,1.00
2020,04,13,06,19,1.00
2020,04,13,06,20,1.00
2020,04,13,06,21,1.00
2020,04,13,06,22,1.00
2020,04,13,06,23,1.00
2020,04,13,06,24,1.00
2020,04,13,06,25,1.00
2020,04,13,06,26,1.00
2020,04,13,06,27,0.90
2020,04,13,06,28,0.90
2020,04,13,06,29,0.90
2020,04,13,06,30,0.90
2020,04,13,06,31,0.90
2020,04,13,06,32,0.80
2020,04,13,06,33,0.80
2020,04,13,06,34,0.80
2020,04,13,06,35,0.80
2020,04,13,06,36,0.80
2020,04,13,06,37,0.70
2020,04,13,06,38,0.70
2020,04,13,06,39,0.70
2020,04,13,06,40,0.70
2020,04,13,06,41,0.70
2020,04,13,06,42,0.70
2020,04,13,06,43,0.70
2020,04,13,06,44,0.70
2020,04,13,06,45,0.70
2020,04,13,06,46,0.70
2020,04,13,06,47,0.70
2020,04,13,06,48,0.70
2020,04,13,06,49,0.60
2020,04,13,06,50,0.60
2020,04,13,06,51,0.60
2020,04,13,06,52,0.60
2020,04,13,06,53,0.60
2020,04,13,06,54,0.60
2020,04,13,06,55,0.60
2020,04,13,06,56,0.60
2020,04,13,06,57,0.60
2020,04,13,06,58,0.70
2020,04,13,06,59,0.70
2020,04,13,07,00,0.70
2020,04,13,07,01,0.70
2020,04,13,07,02,0.70
2020,04,13,07,03,0.70
2020,04,13,07,04,0.80
2020,04,13,07,05,0.80
2020,04,13,07,06,0.80
2020,04,13,07,07,0.80
2020,04,13,07,08,0.90
2020,04,13,07,09,0.90
2020,04,13,07,10,0.90
2020,04,13,07,11,1.00
2020,04,13,07,12,1.00
2020,04,13,07,13,1.00
2020,04,13,07,14,1.10
2020,04,13,07,15,1.10
2020,04,13,07,16,1.10
2020,04,13,07,17,1.20
2020,04,13,07,18,1.30
2020,04,13,07,19,1.30
2020,04,13,07,20,1.30
2020,04,13,07,21,1.30
2020,04,13,07,22,1.40
2020,04,13,07,23,1.40
2020,04,13,07,24,1.40
2020,04,13,07,25,1.50
2020,04,13,07,26,1.50
2020,04,13,07,27,1.50
2020,04,13,07,28,1.50
2020,04,13,07,29,1.50
2020,04,13,07,30,1.40
2020,04,13,07,31,1.40
2020,04,13,07,32,1.50
2020,04,13,07,33,1.50
2020,04,13,07,34,1.50
2020,04,13,07,35,1.60
2020,04,13,07,36,1.60
2020,04,13,07,37,1.60
2020,04,13,07,38,1.60
2020,04,13,07,39,1.60
2020,04,13,07,40,1.60
2020,04,13,07,41,1.60
2020,04,13,07,42,1.60
2020,04,13,07,43,1.70
2020,04,13,07,44,1.70
2020,04,13,07,45,1.70
2020,04,13,07,46,1.70
2020,04,13,07,47,1.70
2020,04,13,07,48,1.70
2020,04,13,07,49,1.80
2020,04,13,07,50,1.80
2020,04,13,07,51,1.80
2020,04,13,07,52,1.80
2020,04,13,07,53,1.90
2020,04,13,07,54,1.90
2020,04,13,07,55,1.90
2020,04,13,07,56,1.90
2020,04,13,07,57,1.90
2020,04,13,07,58,2.00
2020,04,13,07,59,2.00
2020,04,13,08,00,2.00
2020,04,13,08,01,2.10
2020,04,13,08,02,2.10
2020,04,13,08,03,2.20
2020,04,13,08,04,2.20
2020,04,13,08,05,2.30
2020,04,13,08,06,2.40
2020,04,13,08,07,2.40
2020,04,13,08,08,2.40
2020,04,13,08,09,2.50
2020,04,13,08,10,2.60
2020,04,13,08,11,2.60
2020,04,13,08,12,2.60
2020,04,13,08,13,2.70
2020,04,13,08,14,2.70
2020,04,13,08,15,2.80
2020,04,13,08,16,2.80
2020,04,13,08,17,2.90
2020,04,13,08,18,2.90
2020,04,13,08,19,3.00
2020,04,13,08,20,3.00
2020,04,13,08,21,3.10
2020,04,13,08,22,3.10
2020,04,13,08,23,3.20
2020,04,13,08,24,3.20
2020,04,13,08,25,3.20
2020,04,13,08,26,3.30
2020,04,13,08,27,3.30
2020,04,13,08,28,3.40
2020,04,13,08,29,3.40
2020,04,13,08,30,3.50
2020,04,13,08,31,3.50
2020,04,13,08,32,3.60
2020,04,13,08,33,3.70
2020,04,13,08,34,3.80
2020,04,13,08,35,3.80
2020,04,13,08,36,3.90
2020,04,13,08,37,4.00
2020,04,13,08,38,4.00
2020,04,13,08,39,4.10
2020,04,13,08,40,4.10
2020,04,13,08,41,4.20
2020,04,13,08,42,4.20
2020,04,13,08,43,4.30
2020,04,13,08,44,4.30
2020,04,13,08,45,4.40
2020,04,13,08,46,4.40
2020,04,13,08,47,4.50
2020,04,13,08,48,4.60
2020,04,13,08,49,4.70
2020,04,13,08,50,4.80
2020,04,13,08,51,4.90
2020,04,13,08,52,5.00
2020,04,13,08,53,5.10
2020,04,13,08,54,5.10
2020,04,13,08,55,5.20
2020,04,13,08,56,5.20
2020,04,13,08,57,5.30
2020,04,13,08,58,5.40
2020,04,13,08,59,5.50
2020,04,13,09,00,5.50
2020,04,13,09,01,5.60
2020,04,13,09,02,5.70
2020,04,13,09,03,5.80
2020,04,13,09,04,5.90
2020,04,13,09,05,5.90
2020,04,13,09,06,6.00
2020,04,13,09,07,6.10
2020,04,13,09,08,6.20
2020,04,13,09,09,6.30
2020,04,13,09,10,6.30
2020,04,13,09,11,6.40
2020,04,13,09,12,6.50
2020,04,13,09,13,6.50
2020,04,13,09,14,6.60
2020,04,13,09,15,6.70
2020,04,13,09,16,6.80
2020,04,13,09,17,6.80
2020,04,13,09,18,6.90
2020,04,13,09,19,6.90
2020,04,13,09,20,7.00
2020,04,13,09,21,7.00
2020,04,13,09,22,7.10
2020,04,13,09,23,7.20
2020,04,13,09,24,7.20
2020,04,13,09,25,7.40
2020,04,13,09,26,7.50
2020,04,13,09,27,7.60
2020,04,13,09,28,7.70
2020,04,13,09,29,7.80
2020,04,13,09,30,7.90
2020,04,13,09,31,8.10
2020,04,13,09,32,8.20
2020,04,13,09,33,8.20
2020,04,13,09,34,8.30
2020,04,13,09,35,8.40
2020,04,13,09,36,8.50
2020,04,13,09,37,8.50
2020,04,13,09,38,8.60
2020,04,13,09,39,8.60
2020,04,13,09,40,8.60
2020,04,13,09,41,8.60
2020,04,13,09,42,8.60
2020,04,13,09,43,8.60
2020,04,13,09,44,8.60
2020,04,13,09,45,8.80
2020,04,13,09,46,9.90
2020,04,13,09,47,10.10
2020,04,13,09,48,10.20
2020,04,13,09,49,10.40
2020,04,13,09,50,10.50
2020,04,13,09,51,10.60
2020,04,13,09,52,10.70
2020,04,13,09,53,10.70
2020,04,13,09,54,10.80
2020,04,13,09,55,10.90
2020,04,13,09,56,10.90
2020,04,13,09,57,11.00
2020,04,13,09,58,11.10
2020,04,13,09,59,11.10
2020,04,13,10,00,11.20
2020,04,13,10,01,11.20
2020,04,13,10,02,11.30
2020,04,13,10,03,11.30
2020,04,13,10,04,11.30
2020,04,13,10,05,11.40
2020,04,13,10,06,11.50
2020,04,13,10,07,11.50
2020,04,13,10,08,11.60
2020,04,13,10,09,11.60
2020,04,13,10,10,11.70
2020,04,13,10,11,11.70
2020,04,13,10,12,11.70
2020,04,13,10,13,11.80
2020,04,13,10,14,11.80
2020,04,13,10,15,11.90
2020,04,13,10,16,11.90
2020,04,13,10,17,12.00
2020,04,13,10,18,12.00
2020,04,13,10,19,12.00
2020,04,13,10,20,12.10
2020,04,13,10,21,12.00
2020,04,13,10,22,12.10
2020,04,13,10,23,12.10
2020,04,13,10,24,12.10
2020,04,13,10,25,12.10
2020,04,13,10,26,12.20
2020,04,13,10,27,12.20
2020,04,13,10,28,12.20
2020,04,13,10,29,12.30
2020,04,13,10,30,12.30
2020,04,13,10,31,12.20
2020,04,13,10,32,12.10
2020,04,13,10,33,12.10
2020,04,13,10,34,12.10
2020,04,13,10,35,12.10
2020,04,13,10,36,12.20
2020,04,13,10,37,12.20
2020,04,13,10,38,12.20
2020,04,13,10,39,12.30
2020,04,13,10,40,12.30
2020,04,13,10,41,12.40
2020,04,13,10,42,12.50
2020,04,13,10,43,12.50
2020,04,13,10,44,12.60
2020,04,13,10,45,12.70
2020,04,13,10,46,12.70
2020,04,13,10,47,12.70
2020,04,13,10,48,12.80
2020,04,13,10,49,12.80
2020,04,13,10,50,12.70
2020,04,13,10,51,12.70
2020,04,13,10,52,12.70
2020,04,13,10,53,12.70
2020,04,13,10,54,12.80
2020,04,13,10,55,12.80
2020,04,13,10,56,12.80
2020,04,13,10,57,12.90
2020,04,13,10,58,13.00
2020,04,13,10,59,13.10
2020,04,13,11,00,13.10
2020,04,13,11,01,13.20
2020,04,13,11,02,13.20
2020,04,13,11,03,13.20
2020,04,13,11,04,13.30
2020,04,13,11,05,13.30
2020,04,13,11,06,13.30
2020,04,13,11,07,13.20
2020,04,13,11,08,13.20
2020,04,13,11,09,13.10
2020,04,13,11,10,13.20
2020,04,13,11,11,13.20
2020,04,13,11,12,13.30
2020,04,13,11,13,13.30
2020,04,13,11,14,13.30
2020,04,13,11,15,13.30
2020,04,13,11,16,13.30
2020,04,13,11,17,13.30
2020,04,13,11,18,13.30
2020,04,13,11,19,13.30
2020,04,13,11,20,13.30
2020,04,13,11,21,13.40
2020,04,13,11,22,13.40
2020,04,13,11,23,13.40
2020,04,13,11,24,13.50
2020,04,13,11,25,13.50
2020,04,13,11,26,13.60
2020,04,13,11,27,13.70
2020,04,13,11,28,13.70
2020,04,13,11,29,13.80
2020,04,13,11,30,13.90
2020,04,13,11,31,13.90
2020,04,13,11,32,14.00
2020,04,13,11,33,14.10
2020,04,13,11,34,14.20
2020,04,13,11,35,14.30
2020,04,13,11,36,14.40
2020,04,13,11,37,14.40
2020,04,13,11,38,14.50
2020,04,13,11,39,14.50
2020,04,13,11,40,14.60
2020,04,13,11,41,14.60
2020,04,13,11,42,14.60
2020,04,13,11,43,14.60
2020,04,13,11,44,14.60
2020,04,13,11,45,14.60
2020,04,13,11,46,14.60
2020,04,13,11,47,14.70
2020,04,13,11,48,14.70
2020,04,13,11,49,14.80
2020,04,13,11,50,14.80
2020,04,13,11,51,14.90
2020,04,13,11,52,15.00
2020,04,13,11,53,15.00
2020,04,13,11,54,15.00
2020,04,13,11,55,14.80
2020,04,13,11,56,14.80
2020,04,13,11,57,14.80
2020,04,13,11,58,14.70
2020,04,13,11,59,14.80
2020,04,13,12,00,14.80
2020,04,13,12,01,14.80
2020,04,13,12,02,14.90
2020,04,13,12,03,14.90
2020,04,13,12,04,15.00
2020,04,13,12,05,15.00
2020,04,13,12,06,15.00
2020,04,13,12,07,15.00
2020,04,13,12,08,15.00
2020,04,13,12,09,15.00
2020,04,13,12,10,15.00
2020,04,13,12,11,15.00
2020,04,13,12,12,15.00
2020,04,13,12,13,15.00
2020,04,13,12,14,15.00
2020,04,13,12,15,14.80
2020,04,13,12,16,14.70
2020,04,13,12,17,14.60
2020,04,13,12,18,14.60
2020,04,13,12,19,14.60
2020,04,13,12,20,14.70
2020,04,13,12,21,14.80
2020,04,13,12,22,14.90
2020,04,13,12,23,15.00
2020,04,13,12,24,15.00
2020,04,13,12,25,14.90
2020,04,13,12,26,14.90
2020,04,13,12,27,14.90
2020,04,13,12,28,14.90
2020,04,13,12,29,14.90
2020,04,13,12,30,14.90
2020,04,13,12,31,14.90
2020,04,13,12,32,14.90
2020,04,13,12,33,15.00
2020,04,13,12,34,15.00
2020,04,13,12,35,15.00
2020,04,13,12,36,15.20
2020,04,13,12,37,15.30
2020,04,13,12,38,15.30
2020,04,13,12,39,15.40
2020,04,13,12,40,15.40
2020,04,13,12,41,15.50
2020,04,13,12,42,15.50
2020,04,13,12,43,15.60
2020,04,13,12,44,15.60
2020,04,13,12,45,15.60
2020,04,13,12,46,15.70
2020,04,13,12,47,15.70
2020,04,13,12,48,15.80
2020,04,13,12,49,15.90
2020,04,13,12,50,16.00
2020,04,13,12,51,16.00
2020,04,13,12,52,16.10
2020,04,13,12,53,16.10
2020,04,13,12,54,16.20
2020,04,13,12,55,16.20
2020,04,13,12,56,16.20
2020,04,13,12,57,16.20
2020,04,13,12,58,16.30
2020,04,13,12,59,16.20
2020,04,13,13,00,16.20
2020,04,13,13,01,16.20
2020,04,13,13,02,16.10
2020,04,13,13,03,16.10
2020,04,13,13,04,16.10
2020,04,13,13,05,16.10
2020,04,13,13,06,16.10
2020,04,13,13,07,16.10
2020,04,13,13,08,16.10
2020,04,13,13,09,16.10
2020,04,13,13,10,16.10
2020,04,13,13,11,16.10
2020,04,13,13,12,16.10
2020,04,13,13,13,16.00
2020,04,13,13,14,15.90
2020,04,13,13,15,15.80
2020,04,13,13,16,15.80
2020,04,13,13,17,15.80
2020,04,13,13,18,15.80
2020,04,13,13,19,15.80
2020,04,13,13,20,15.90
2020,04,13,13,21,16.00
2020,04,13,13,22,16.10
2020,04,13,13,23,16.20
2020,04,13,13,24,16.30
2020,04,13,13,25,16.40
2020,04,13,13,26,16.50
2020,04,13,13,27,16.50
2020,04,13,13,28,16.50
2020,04,13,13,29,16.50
2020,04,13,13,30,16.50
2020,04,13,13,31,16.60
2020,04,13,13,32,16.60
2020,04,13,13,33,16.70
2020,04,13,13,34,16.70
2020,04,13,13,35,16.70
2020,04,13,13,36,16.70
2020,04,13,13,37,16.70
2020,04,13,13,38,16.70
2020,04,13,13,39,16.80
2020,04,13,13,40,16.80
2020,04,13,13,41,16.80
2020,04,13,13,42,16.80
2020,04,13,13,43,16.90
2020,04,13,13,44,16.90
2020,04,13,13,45,17.00
2020,04,13,13,46,17.00
2020,04,13,13,47,17.10
2020,04,13,13,48,17.20
2020,04,13,13,49,17.30
2020,04,13,13,50,17.30
2020,04,13,13,51,17.40
2020,04,13,13,52,17.40
2020,04,13,13,53,17.50
2020,04,13,13,54,17.50
2020,04,13,13,55,17.60
2020,04,13,13,56,17.60
2020,04,13,13,57,17.60
2020,04,13,13,58,17.60
2020,04,13,13,59,17.50
2020,04,13,14,00,17.50
2020,04,13,14,01,17.40
2020,04,13,14,02,17.40
2020,04,13,14,03,17.40
2020,04,13,14,04,17.40
2020,04,13,14,05,17.50
2020,04,13,14,06,17.50
2020,04,13,14,07,17.50
2020,04,13,14,08,17.50
2020,04,13,14,09,17.50
2020,04,13,14,10,17.50
2020,04,13,14,11,17.50
2020,04,13,14,12,17.60
2020,04,13,14,13,17.60
2020,04,13,14,14,17.50
2020,04,13,14,15,17.60
2020,04,13,14,16,17.60
2020,04,13,14,17,17.60
2020,04,13,14,18,17.60
2020,04,13,14,19,17.60
2020,04,13,14,20,17.60
2020,04,13,14,21,17.50
2020,04,13,14,22,17.40
2020,04,13,14,23,17.40
2020,04,13,14,24,17.30
2020,04,13,14,25,17.30
2020,04,13,14,26,17.30
2020,04,13,14,27,17.40
2020,04,13,14,28,17.40
2020,04,13,14,29,17.40
2020,04,13,14,30,17.30
2020,04,13,14,31,17.30
2020,04,13,14,32,17.40
2020,04,13,14,33,17.30
2020,04,13,14,34,17.30
2020,04,13,14,35,17.30
2020,04,13,14,36,17.30
2020,04,13,14,37,17.20
2020,04,13,14,38,17.20
2020,04,13,14,39,17.10
2020,04,13,14,40,17.00
2020,04,13,14,41,17.00
2020,04,13,14,42,16.90
2020,04,13,14,43,16.80
2020,04,13,14,44,16.70
2020,04,13,14,45,16.70
2020,04,13,14,46,16.70
2020,04,13,14,47,16.60
2020,04,13,14,48,16.70
2020,04,13,14,49,16.70
2020,04,13,14,50,16.80
2020,04,13,14,51,16.90
2020,04,13,14,52,17.00
2020,04,13,14,53,17.10
2020,04,13,14,54,17.20
2020,04,13,14,55,17.30
2020,04,13,14,56,17.30
2020,04,13,14,57,17.40
2020,04,13,14,58,17.50
2020,04,13,14,59,17.60
2020,04,13,15,00,17.60
2020,04,13,15,01,17.50
2020,04,13,15,02,17.40
2020,04,13,15,03,17.40
2020,04,13,15,04,17.40
2020,04,13,15,05,17.40
2020,04,13,15,06,17.40
2020,04,13,15,07,17.30
2020,04,13,15,08,17.30
2020,04,13,15,09,17.20
2020,04,13,15,10,17.20
2020,04,13,15,11,17.30
2020,04,13,15,12,17.30
2020,04,13,15,13,17.40
2020,04,13,15,14,17.40
2020,04,13,15,15,17.40
2020,04,13,15,16,17.40
2020,04,13,15,17,17.30
2020,04,13,15,18,17.20
2020,04,13,15,19,17.20
2020,04,13,15,20,17.20
2020,04,13,15,21,17.10
2020,04,13,15,22,17.00
2020,04,13,15,23,16.90
2020,04,13,15,24,16.90
2020,04,13,15,25,16.90
2020,04,13,15,26,16.90
2020,04,13,15,27,16.90
2020,04,13,15,28,16.90
2020,04,13,15,29,16.90
2020,04,13,15,30,16.80
2020,04,13,15,31,16.80
2020,04,13,15,32,16.70
2020,04,13,15,33,16.70
2020,04,13,15,34,16.70
2020,04,13,15,35,16.70
2020,04,13,15,36,16.80
2020,04,13,15,37,16.80
2020,04,13,15,38,16.80
2020,04,13,15,39,16.80
2020,04,13,15,40,16.80
2020,04,13,15,41,16.80
2020,04,13,15,42,16.70
2020,04,13,15,43,16.70
2020,04,13,15,44,16.70
2020,04,13,15,45,16.60
2020,04,13,15,46,16.60
2020,04,13,15,47,16.50
2020,04,13,15,48,16.50
2020,04,13,15,49,16.50
2020,04,13,15,50,16.60
2020,04,13,15,51,16.60
2020,04,13,15,52,16.60
2020,04,13,15,53,16.60
2020,04,13,15,54,16.60
2020,04,13,15,55,16.70
2020,04,13,15,56,16.70
2020,04,13,15,57,16.70
2020,04,13,15,58,16.80
2020,04,13,15,59,16.80
2020,04,13,16,00,16.90
2020,04,13,16,01,16.90
2020,04,13,16,02,16.90
2020,04,13,16,03,16.90
2020,04,13,16,04,16.90
2020,04,13,16,05,16.90
2020,04,13,16,06,17.00
2020,04,13,16,07,17.10
2020,04,13,16,08,17.10
2020,04,13,16,09,17.20
2020,04,13,16,10,17.20
2020,04,13,16,11,17.30
2020,04,13,16,12,17.30
2020,04,13,16,13,17.30
2020,04,13,16,14,17.30
2020,04,13,16,15,17.30
2020,04,13,16,16,17.20
2020,04,13,16,17,17.10
2020,04,13,16,18,17.00
2020,04,13,16,19,16.90
2020,04,13,16,20,16.80
2020,04,13,16,21,16.80
2020,04,13,16,22,16.70
2020,04,13,16,23,16.60
2020,04,13,16,24,16.60
2020,04,13,16,25,16.60
2020,04,13,16,26,16.60
2020,04,13,16,27,16.60
2020,04,13,16,28,16.70
2020,04,13,16,29,16.70
2020,04,13,16,30,16.70
2020,04,13,16,31,16.70
2020,04,13,16,32,16.70
2020,04,13,16,33,16.70
2020,04,13,16,34,16.70
2020,04,13,16,35,16.70
2020,04,13,16,36,16.70
2020,04,13,16,37,16.80
2020,04,13,16,38,16.80
2020,04,13,16,39,16.80
2020,04,13,16,40,16.90
2020,04,13,16,41,16.90
2020,04,13,16,42,16.90
2020,04,13,16,43,17.00
2020,04,13,16,44,17.00
2020,04,13,16,45,17.10
2020,04,13,16,46,17.10
2020,04,13,16,47,17.10
2020,04,13,16,48,17.10
2020,04,13,16,49,17.00
2020,04,13,16,50,17.00
2020,04,13,16,51,16.90
2020,04,13,16,52,16.90
2020,04,13,16,53,16.80
2020,04,13,16,54,16.80
2020,04,13,16,55,16.70
2020,04,13,16,56,16.60
2020,04,13,16,57,16.60
2020,04,13,16,58,16.50
2020,04,13,16,59,16.50
2020,04,13,17,00,16.50
2020,04,13,17,01,16.50
2020,04,13,17,02,16.50
2020,04,13,17,03,16.50
2020,04,13,17,04,16.50
2020,04,13,17,05,16.50
2020,04,13,17,06,16.50
2020,04,13,17,07,16.40
2020,04,13,17,08,16.40
2020,04,13,17,09,16.30
2020,04,13,17,10,16.30
2020,04,13,17,11,16.30
2020,04,13,17,12,16.20
2020,04,13,17,13,16.30
2020,04,13,17,14,16.30
2020,04,13,17,15,16.30
2020,04,13,17,16,16.30
2020,04,13,17,17,16.30
2020,04,13,17,18,16.30
2020,04,13,17,19,16.30
2020,04,13,17,20,16.20
2020,04,13,17,21,16.20
2020,04,13,17,22,16.20
2020,04,13,17,23,16.20
2020,04,13,17,24,16.20
2020,04,13,17,25,16.20
2020,04,13,17,26,16.20
2020,04,13,17,27,16.20
2020,04,13,17,28,16.30
2020,04,13,17,29,16.30
2020,04,13,17,30,16.30
2020,04,13,17,31,16.40
2020,04,13,17,32,16.40
2020,04,13,17,33,16.40
2020,04,13,17,34,16.40
2020,04,13,17,35,16.40
2020,04,13,17,36,16.40
2020,04,13,17,37,16.30
2020,04,13,17,38,16.30
2020,04,13,17,39,16.20
2020,04,13,17,40,16.10
2020,04,13,17,41,16.00
2020,04,13,17,42,15.90
2020,04,13,17,43,15.80
2020,04,13,17,44,15.70